Starlink 5676

operational
NORAD ID: 55464 Int'l Des: 2023-015 Owner: SPXS Country: US Constellation: starlink
LEOCIRCULAR

About Starlink 5676

Description loading...

Live Position

Loading 3D Globe...

Upcoming Passes

Altitude History

Altitude vs Time

uPlot chart will show altitude changes over time

Two-Line Element Set

1 55464U 23015R 25348.65135094 -.00020157 00000-0 -14781-2 0 9990
2 55464 43.0035 67.9252 0001475 251.4406 108.6276 15.02618439157968
Epoch: Dec 14, 2025 • Age: 16 hours

Current Status

Altitude 559.7 km
Velocity 7.59 km/s
Sub-Earth Point 25.74°N, 105.42°W
Launch Date Feb 2, 2023
Age 2.8 years
Type internet

Technical Details

Classification Payload
Mass 305.00 kg
Dry Mass 290.00 kg
Total Mass 305.00 kg
Length 0.20 m
Diameter 2.80 m
Span 9.00 m
Shape Box + pan
Manufacturer SPXS
Bus Type Starlink
Phase Status In Orbit
Owner/State SPXS/US

Large Constellations

Loading constellations...